Date String (YYYY-MM-DD hh:mm:ss) UTC,Instrument flags,absolute air pressure of the measurement (hPa),sample flow rate (lpm),inlet stack bypass flow (lpm),air temperature of the measurement (°C),ambient temperature measured by the external sensor (°C),aerosol sample conditioner tube jacket temperature (°C),OPC LED temperature (°C),internal box temperature (°C),relative humidity of the measurement (%),span deviation,mass concentration of particles derived from Lorenz-Mie calculation of OPC scattering (μg/m³),mass concentration of particles derived from Lorenz-Mie calculation of OPC scattering (μg/m³),mass concentration of particles derived from Lorenz-Mie calculation of OPC scattering (μg/m³)
DateTimeUTC,F1_M11,P_M11,Q1_M11,Q2_M11,T1_M11,T2_M11,T3_M11,T4_M11,T5_M11,U1_M11,ZSPAN_M11,X0_M11,X2_M11,X1_M11
2023-06-22 14:00:00,SystemResetWarning,0832.2,5.00,000.00,030.2,028.6,000.0,038.8,031.7,28.0,0000.0,0006.81,0004.19,0003.85
2023-06-22 14:01:00,SystemResetWarning,0832.2,5.00,000.00,030.2,028.7,000.0,038.8,031.7,28.9,0000.0,0006.89,0004.21,0003.85
2023-06-22 14:02:00,SystemResetWarning,0832.2,5.02,000.00,030.2,028.7,000.0,038.8,031.7,29.5,0000.0,0006.87,0004.22,0003.85
2023-06-22 14:03:00,SystemResetWarning,0832.2,5.01,000.00,030.3,028.7,000.0,038.8,031.7,30.2,0000.0,0006.73,0004.20,0003.85
2023-06-22 14:04:00,SystemResetWarning,0832.2,5.00,000.00,030.3,028.7,000.0,038.8,031.7,29.6,0000.0,0007.14,0004.20,0003.84
2023-06-22 14:05:00,SystemResetWarning,0832.2,5.00,000.00,030.3,028.7,000.0,038.8,031.8,29.0,0000.0,0007.46,0004.20,0003.84
2023-06-22 14:06:00,SystemResetWarning,0832.2,4.99,000.00,030.3,028.8,000.0,038.8,031.8,30.0,0001.4,0007.51,0004.20,0003.84
2023-06-22 14:07:00,SystemResetWarning,0832.2,5.00,000.00,030.3,028.8,000.0,038.8,031.7,30.4,0003.7,0007.59,0004.19,0003.83
2023-06-22 14:08:00,SystemResetWarning,0832.2,5.00,000.00,030.3,028.7,000.0,038.8,031.8,30.7,0001.7,0007.58,0004.19,0003.82
2023-06-22 14:09:00,SystemResetWarning,0832.2,5.00,000.00,030.3,027.1,000.0,038.8,031.8,30.7,0000.7,0007.57,0004.17,0003.81
2023-06-22 14:10:00,SystemResetWarning,0832.2,5.00,000.00,030.3,025.4,000.0,038.7,031.7,31.8,0000.0,0007.51,0004.18,0003.82
2023-06-22 14:11:00,SystemResetWarning,0832.2,5.01,000.00,030.3,025.1,000.0,038.7,031.6,31.9,0000.0,0007.55,0004.19,0003.82
2023-06-22 14:12:00,SystemResetWarning,0832.2,5.01,000.00,030.1,025.3,000.0,038.7,031.2,32.0,0000.4,0007.52,0004.19,0003.82
2023-06-22 14:13:00,SystemResetWarning,0832.2,5.00,000.00,030.0,025.8,000.0,038.6,031.2,32.3,0000.9,0007.66,0004.18,0003.83
2023-06-22 14:14:00,SystemResetWarning,0832.2,5.00,000.00,030.0,026.2,000.0,038.6,031.2,32.9,0000.0,0007.94,0004.21,0003.84
2023-06-22 14:15:00,SystemResetWarning,0832.2,5.00,000.00,030.0,026.6,000.0,038.6,031.2,33.5,0000.0,0007.86,0004.23,0003.84
2023-06-22 14:16:00,SystemResetWarning,0832.2,5.00,000.00,029.9,027.0,000.0,038.6,031.3,32.4,0000.0,0007.54,0004.22,0003.84
2023-06-22 14:17:00,SystemResetWarning,0832.2,5.00,000.00,029.9,027.3,000.0,038.6,031.3,32.3,0000.0,0007.50,0004.23,0003.84
2023-06-22 14:18:00,SystemResetWarning,0832.2,5.00,000.00,029.9,027.5,000.0,038.6,031.3,31.8,0000.0,0007.41,0004.22,0003.86
2023-06-22 14:19:00,SystemResetWarning,0832.2,5.01,000.00,029.9,027.7,000.0,038.6,031.3,30.5,0000.0,0007.49,0004.25,0003.88
2023-06-22 14:20:00,SystemResetWarning,0832.2,5.01,000.00,029.9,027.9,000.0,038.6,031.3,31.0,0000.0,0007.51,0004.27,0003.91
2023-06-22 14:21:00,SystemResetWarning,0832.2,4.99,000.00,030.0,028.0,000.0,038.6,031.3,32.2,0000.0,0007.52,0004.28,0003.91
2023-06-22 14:22:00,SystemResetWarning,0832.2,4.99,000.00,030.0,028.1,000.0,038.6,031.4,32.3,0000.0,0008.05,0004.28,0003.92
2023-06-22 14:23:00,SystemResetWarning,0832.2,5.01,000.00,030.0,028.2,000.0,038.6,031.4,32.6,0000.0,0008.16,0004.27,0003.92
2023-06-22 14:24:00,SystemResetWarning,0832.1,5.01,000.00,030.0,028.3,000.0,038.6,031.5,32.0,0000.0,0007.99,0004.28,0003.91
2023-06-22 14:25:00,SystemResetWarning,0832.2,5.01,000.00,030.0,028.4,000.0,038.6,031.5,32.5,0000.0,0007.79,0004.27,0003.90
2023-06-22 14:26:00,SystemResetWarning,0832.1,4.98,000.00,030.1,028.4,000.0,038.6,031.5,35.4,0000.0,0007.69,0004.25,0003.90
2023-06-22 14:27:00,SystemResetWarning,0832.2,5.03,000.00,030.2,028.5,000.0,038.6,031.7,34.3,0000.0,0007.63,0004.27,0003.91
2023-06-22 14:28:00,SystemResetWarning,0832.2,4.97,000.00,030.4,028.6,000.0,038.6,031.7,32.5,0000.0,0007.58,0004.26,0003.91
2023-06-22 14:29:00,SystemResetWarning,0832.2,5.01,000.00,030.5,028.6,000.0,038.6,031.7,31.6,0000.0,0007.56,0004.26,0003.90
2023-06-22 14:30:00,SystemResetWarning,0832.2,5.01,000.00,030.6,028.7,000.0,038.7,031.7,30.7,0000.0,0007.52,0004.24,0003.89
2023-06-22 14:31:00,SystemResetWarning,0832.2,4.99,000.00,030.7,028.5,000.0,038.7,031.8,28.4,0000.0,0007.61,0004.27,0003.87
2023-06-22 14:32:00,SystemResetWarning,0832.2,4.99,000.00,030.7,026.9,000.0,038.7,031.9,27.5,0000.0,0007.64,0004.27,0003.86
2023-06-22 14:33:00,SystemResetWarning,0832.2,5.00,000.00,030.7,025.2,000.0,038.7,031.8,28.1,0000.0,0006.99,0004.28,0003.85
2023-06-22 14:34:00,SystemResetWarning,0832.2,5.00,000.00,030.7,025.0,000.0,038.7,031.7,29.8,0000.0,0006.83,0004.26,0003.83
2023-06-22 14:35:00,SystemResetWarning,0832.1,5.00,000.00,030.5,025.3,000.0,038.7,031.3,30.0,0000.0,0006.87,0004.21,0003.79
2023-06-22 14:36:00,SystemResetWarning,0832.1,5.01,000.00,030.4,025.7,000.0,038.7,031.2,31.0,0000.0,0007.26,0004.18,0003.76
2023-06-22 14:37:00,SystemResetWarning,0832.1,4.99,000.00,030.4,026.2,000.0,038.7,031.2,30.2,0000.0,0007.69,0004.15,0003.74
2023-06-22 14:38:00,SystemResetWarning,0832.1,4.99,000.00,030.4,026.6,000.0,038.7,031.2,31.2,0000.0,0007.66,0004.12,0003.71
2023-06-22 14:39:00,SystemResetWarning,0832.1,5.01,000.00,030.3,027.0,000.0,038.7,031.3,31.1,0000.0,0007.72,0004.11,0003.68
2023-06-22 14:40:00,SystemResetWarning,0832.0,5.01,000.00,030.3,027.3,000.0,038.7,031.3,29.7,0000.0,0008.21,0004.05,0003.65
2023-06-22 14:41:00,SystemResetWarning,0832.1,4.99,000.00,030.3,027.5,000.0,038.8,031.3,28.9,0000.0,0008.44,0004.05,0003.62
2023-06-22 14:42:00,SystemResetWarning,0832.1,5.00,000.00,030.3,027.7,000.0,038.8,031.4,28.3,0000.0,0008.40,0003.98,0003.59
2023-06-22 14:43:00,SystemResetWarning,0832.1,4.99,000.00,030.3,027.9,000.0,038.8,031.4,29.3,0000.0,0008.47,0003.97,0003.56
2023-06-22 14:44:00,SystemResetWarning,0832.1,5.00,000.00,030.3,028.0,000.0,038.8,031.4,29.1,0000.0,0008.40,0003.93,0003.53
2023-06-22 14:45:00,SystemResetWarning,0832.0,5.00,000.00,030.3,028.1,000.0,038.8,031.4,29.4,0000.0,0008.31,0003.89,0003.49
2023-06-22 14:46:00,SystemResetWarning,0832.0,5.00,000.00,030.3,028.2,000.0,038.8,031.5,29.5,0000.0,0008.44,0003.90,0003.47
2023-06-22 14:47:00,SystemResetWarning,0832.0,5.00,000.00,030.3,028.3,000.0,038.8,031.5,29.3,0000.0,0008.23,0003.90,0003.45
2023-06-22 14:48:00,SystemResetWarning,0832.0,5.01,000.00,030.4,028.4,000.0,038.8,031.5,29.4,0000.0,0007.87,0003.89,0003.43
2023-06-22 14:49:00,SystemResetWarning,0832.0,4.99,000.00,030.4,028.5,000.0,038.8,031.6,30.1,0000.0,0007.87,0003.88,0003.40
2023-06-22 14:50:00,SystemResetWarning,0832.0,4.99,000.00,030.4,028.5,000.0,038.8,031.6,29.6,0000.0,0008.07,0003.83,0003.37
2023-06-22 14:51:00,SystemResetWarning,0832.0,5.00,000.00,030.4,028.6,000.0,038.8,031.6,29.5,0000.0,0008.31,0003.82,0003.35
2023-06-22 14:52:00,SystemResetWarning,0832.1,5.01,000.00,030.4,028.6,000.0,038.8,031.7,30.6,0000.0,0008.12,0003.79,0003.33
2023-06-22 14:53:00,SystemResetWarning,0832.0,5.01,000.00,030.4,028.6,000.0,038.8,031.7,31.0,0000.0,0007.96,0003.75,0003.31
2023-06-22 14:54:00,SystemResetWarning,0832.0,4.98,000.00,030.5,027.7,000.0,038.8,031.8,31.2,0000.0,0007.96,0003.72,0003.29
2023-06-22 14:55:00,SystemResetWarning,0832.0,5.00,000.00,030.4,025.7,000.0,038.7,031.7,30.2,0000.0,0008.42,0003.70,0003.27
2023-06-22 14:56:00,SystemResetWarning,0832.0,5.00,000.00,030.4,025.0,000.0,038.7,031.6,30.5,0000.0,0009.43,0003.75,0003.28
2023-06-22 14:57:00,SystemResetWarning,0832.0,5.01,000.00,030.3,025.2,000.0,038.7,031.2,31.1,0000.0,0009.65,0003.78,0003.29
2023-06-22 14:58:00,SystemResetWarning,0832.0,5.01,000.00,030.1,025.6,000.0,038.7,031.1,31.7,0000.0,0009.63,0003.77,0003.28
2023-06-22 14:59:00,SystemResetWarning,0832.0,5.00,000.00,030.1,026.0,000.0,038.6,031.1,31.5,0000.0,0009.78,0003.81,0003.28
